TimeCST,TemperatureF,Dew PointF,Humidity,Sea Level PressureIn,VisibilityMPH,Wind Direction,Wind SpeedMPH,Gust SpeedMPH,PrecipitationIn,Events,Conditions,WindDirDegrees,DateUTC
12:53 AM,41.0,25.0,53,30.24,10.0,North,6.9,-,N/A,,Clear,350,2013-03-01 06:53:00
3:53 AM,37.0,24.1,59,30.23,10.0,NNW,8.1,-,N/A,,Clear,330,2013-03-01 09:53:00
4:53 AM,37.0,26.1,65,30.23,10.0,NNW,6.9,-,N/A,,Clear,340,2013-03-01 10:53:00
5:53 AM,36.0,26.1,67,30.26,10.0,NNW,5.8,-,N/A,,Clear,340,2013-03-01 11:53:00
6:53 AM,35.1,26.1,70,30.27,10.0,North,8.1,-,N/A,,Clear,350,2013-03-01 12:53:00
8:53 AM,42.1,30.0,62,30.31,9.0,North,8.1,-,N/A,,Clear,360,2013-03-01 14:53:00
9:53 AM,46.0,30.0,54,30.31,10.0,NNE,4.6,-,N/A,,Partly Cloudy,20,2013-03-01 15:53:00
10:53 AM,48.9,28.9,46,30.32,10.0,North,9.2,-,N/A,,Partly Cloudy,350,2013-03-01 16:53:00
11:53 AM,51.1,28.0,41,30.29,10.0,North,8.1,-,N/A,,Clear,350,2013-03-01 17:53:00
12:53 PM,54.0,26.1,34,30.25,10.0,North,8.1,-,N/A,,Partly Cloudy,360,2013-03-01 18:53:00
1:53 PM,55.0,25.0,31,30.22,10.0,NNW,9.2,-,N/A,,Scattered Clouds,330,2013-03-01 19:53:00
2:53 PM,54.0,28.0,37,30.22,10.0,North,10.4,17.3,N/A,,Overcast,10,2013-03-01 20:53:00
3:53 PM,57.0,28.9,34,30.20,10.0,NNW,11.5,18.4,N/A,,Clear,330,2013-03-01 21:53:00
4:53 PM,55.9,27.0,33,30.20,10.0,North,12.7,-,N/A,,Partly Cloudy,350,2013-03-01 22:53:00
5:53 PM,53.1,27.0,37,30.22,10.0,North,5.8,-,N/A,,Scattered Clouds,10,2013-03-01 23:53:00
6:53 PM,48.0,28.0,46,30.22,10.0,North,3.5,-,N/A,,Clear,350,2013-03-02 00:53:00
8:53 PM,43.0,28.9,58,30.26,10.0,North,4.6,-,N/A,,Clear,350,2013-03-02 02:53:00
9:53 PM,42.1,30.9,65,30.27,10.0,NNW,6.9,-,N/A,,Clear,330,2013-03-02 03:53:00
10:53 PM,43.0,30.0,60,30.28,10.0,NNW,6.9,-,N/A,,Clear,330,2013-03-02 04:53:00
11:53 PM,41.0,30.0,65,30.30,10.0,North,6.9,-,N/A,,Clear,350,2013-03-02 05:53:00